| time (UTC) | temp F | wind direction | speed MPH | gust MPH | rain 1hr in | rain 24hr in | rain mn in | humidity % | barometer mb |
| 20260831092419 | 82 | 215 | 1.0 | 3.0 | 0.00 | 0.00 | 0.00 | 65 | 1015.1 |
| 20260831091914 | 82 | 213 | 0.0 | 4.0 | 0.00 | 0.00 | 0.00 | 64 | 1015.0 |
| 20260831091409 | 82 | 256 | 2.0 | 2.0 | 0.00 | 0.00 | 0.00 | 63 | 1015.0 |
| 20260831090904 | 83 | 203 | 0.0 | 2.0 | 0.00 | 0.00 | 0.00 | 62 | 1014.9 |
| 20260831090400 | 83 | 233 | 2.0 | 3.0 | 0.00 | 0.00 | 0.00 | 62 | 1014.9 |
| 20260831085856 | 83 | 269 | 0.0 | 3.0 | 0.00 | 0.00 | 0.00 | 62 | 1015.0 |
| 20260831085350 | 83 | 209 | 2.0 | 3.0 | 0.00 | 0.00 | 0.00 | 61 | 1014.7 |
| 20260831084844 | 83 | 230 | 2.0 | 3.0 | 0.00 | 0.00 | 0.00 | 61 | 1014.8 |
| 20260831084341 | 84 | 221 | 3.0 | 4.0 | 0.00 | 0.00 | 0.00 | 60 | 1014.9 |
| 20260831083837 | 84 | 219 | 2.0 | 3.0 | 0.00 | 0.00 | 0.00 | 59 | 1014.9 |
| 20260831083332 | 84 | 203 | 3.0 | 6.0 | 0.00 | 0.00 | 0.00 | 59 | 1014.8 |
| 20260831082831 | 84 | 233 | 3.0 | 5.0 | 0.00 | 0.00 | 0.00 | 59 | 1014.8 |
| 20260831082326 | 84 | 217 | 2.0 | 5.0 | 0.00 | 0.00 | 0.00 | 59 | 1014.6 |
| 20260831081822 | 84 | 214 | 3.0 | 5.0 | 0.00 | 0.00 | 0.00 | 59 | 1014.8 |
| 20260831081317 | 83 | 251 | 2.0 | 9.0 | 0.00 | 0.00 | 0.00 | 60 | 1014.9 |
| 20260831080813 | 83 | 200 | 5.0 | 6.0 | 0.00 | 0.00 | 0.00 | 60 | 1014.9 |
| 20260831080307 | 82 | 246 | 0.0 | 3.0 | 0.00 | 0.00 | 0.00 | 62 | 1014.8 |
| 20260831075803 | 82 | 254 | 2.0 | 3.0 | 0.00 | 0.00 | 0.00 | 62 | 1014.6 |
| 20260831075258 | 82 | 228 | 2.0 | 3.0 | 0.00 | 0.00 | 0.00 | 62 | 1014.9 |
| 20260831074758 | 82 | 222 | 2.0 | 3.0 | 0.00 | 0.00 | 0.00 | 62 | 1014.7 |
| 20260831074251 | 82 | 234 | 1.0 | 3.0 | 0.00 | 0.00 | 0.00 | 63 | 1014.7 |
| 20260831073748 | 82 | 260 | 1.0 | 2.0 | 0.00 | 0.00 | 0.00 | 62 | 1014.6 |
| 20260831073246 | 82 | 172 | 1.0 | 2.0 | 0.00 | 0.00 | 0.00 | 62 | 1014.5 |
| 20260831072742 | 83 | 269 | 0.0 | 3.0 | 0.00 | 0.00 | 0.00 | 62 | 1014.5 |
| 20260831072238 | 83 | 255 | 0.0 | 2.0 | 0.00 | 0.00 | 0.00 | 62 | 1014.6 |
| 20260831071738 | 83 | 194 | 1.0 | 2.0 | 0.00 | 0.00 | 0.00 | 62 | 1014.5 |
| 20260831071233 | 82 | 187 | 0.0 | 2.0 | 0.00 | 0.00 | 0.00 | 62 | 1014.2 |
| 20260831070727 | 83 | 236 | 2.0 | 2.0 | 0.00 | 0.00 | 0.00 | 62 | 1014.5 |
| 20260831070221 | 83 | 243 | 0.0 | 2.0 | 0.00 | 0.00 | 0.00 | 61 | 1014.8 |
| 20260831065720 | 83 | 205 | 0.0 | 2.0 | 0.00 | 0.00 | 0.00 | 61 | 1014.9 |
| 20260831065218 | 83 | 176 | 1.0 | 2.0 | 0.00 | 0.00 | 0.00 | 60 | 1014.5 |
| 20260831064713 | 83 | 242 | 2.0 | 3.0 | 0.00 | 0.00 | 0.00 | 60 | 1014.6 |
| 20260831064208 | 84 | 238 | 2.0 | 3.0 | 0.00 | 0.00 | 0.00 | 60 | 1014.8 |
| 20260831063705 | 84 | 207 | 1.0 | 3.0 | 0.00 | 0.00 | 0.00 | 59 | 1014.7 |
| 20260831063154 | 84 | 221 | 2.0 | 3.0 | 0.00 | 0.00 | 0.00 | 59 | 1014.8 |
| 20260831062654 | 84 | 200 | 2.0 | 3.0 | 0.00 | 0.00 | 0.00 | 59 | 1014.7 |
| 20260831062148 | 84 | 237 | 0.0 | 2.0 | 0.00 | 0.00 | 0.00 | 59 | 1014.6 |
| 20260831061646 | 84 | 232 | 1.0 | 2.0 | 0.00 | 0.00 | 0.00 | 59 | 1014.5 |
| 20260831061142 | 84 | 203 | 2.0 | 3.0 | 0.00 | 0.00 | 0.00 | 58 | 1014.7 |
| 20260831060638 | 84 | 169 | 0.0 | 3.0 | 0.00 | 0.00 | 0.00 | 58 | 1014.7 |
| 20260831060132 | 84 | 238 | 2.0 | 2.0 | 0.00 | 0.00 | 0.00 | 58 | 1014.6 |
| 20260831055631 | 84 | 193 | 1.0 | 2.0 | 0.00 | 0.00 | 0.00 | 58 | 1014.7 |
| 20260831055127 | 84 | 239 | 2.0 | 2.0 | 0.00 | 0.00 | 0.00 | 58 | 1014.8 |
| 20260831054626 | 85 | 230 | 2.0 | 2.0 | 0.00 | 0.00 | 0.00 | 58 | 1014.8 |
| 20260831054126 | 85 | 199 | 1.0 | 2.0 | 0.00 | 0.00 | 0.00 | 57 | 1014.7 |
| 20260831053621 | 85 | 242 | 0.0 | 3.0 | 0.00 | 0.00 | 0.00 | 58 | 1014.9 |
| 20260831053120 | 85 | 231 | 0.0 | 2.0 | 0.00 | 0.00 | 0.00 | 57 | 1014.8 |
| 20260831052619 | 85 | 245 | 2.0 | 3.0 | 0.00 | 0.00 | 0.00 | 57 | 1014.8 |
| 20260831052118 | 86 | 192 | 2.0 | 2.0 | 0.00 | 0.00 | 0.00 | 57 | 1014.6 |
| 20260831051616 | 86 | 167 | 3.0 | 3.0 | 0.00 | 0.00 | 0.00 | 56 | 1014.5 |
| 20260831051115 | 86 | 195 | 1.0 | 3.0 | 0.00 | 0.00 | 0.00 | 56 | 1014.5 |
| 20260831050610 | 85 | 214 | 1.0 | 2.0 | 0.00 | 0.00 | 0.00 | 56 | 1014.7 |
| 20260831050109 | 85 | 242 | 0.0 | 2.0 | 0.00 | 0.00 | 0.00 | 57 | 1014.4 |
| 20260831045608 | 85 | 226 | 0.0 | 2.0 | 0.00 | 0.00 | 0.00 | 58 | 1014.4 |
| 20260831045103 | 85 | 257 | 0.0 | 1.0 | 0.00 | 0.00 | 0.00 | 57 | 1014.6 |
| 20260831044559 | 85 | 253 | 0.0 | 1.0 | 0.00 | 0.00 | 0.00 | 57 | 1014.6 |
| 20260831044054 | 86 | 269 | 0.0 | 2.0 | 0.00 | 0.00 | 0.00 | 57 | 1014.4 |
| 20260831043549 | 86 | 218 | 0.0 | 2.0 | 0.00 | 0.00 | 0.00 | 56 | 1014.5 |
| 20260831043045 | 86 | 208 | 0.0 | 2.0 | 0.00 | 0.00 | 0.00 | 56 | 1014.4 |
| 20260831042544 | 86 | 269 | 0.0 | 1.0 | 0.00 | 0.00 | 0.00 | 56 | 1014.5 |
| 20260831042039 | 86 | 220 | 0.0 | 2.0 | 0.00 | 0.00 | 0.00 | 55 | 1014.7 |
| 20260831041534 | 87 | 234 | 0.0 | 2.0 | 0.00 | 0.00 | 0.00 | 56 | 1014.5 |
| 20260831041027 | 87 | 194 | 1.0 | 2.0 | 0.00 | 0.00 | 0.00 | 55 | 1014.5 |
| 20260831040522 | 87 | 228 | 0.0 | 2.0 | 0.00 | 0.00 | 0.00 | 55 | 1014.3 |
| 20260831040022 | 87 | 202 | 1.0 | 2.0 | 0.00 | 0.00 | 0.00 | 54 | 1014.4 |
| 20260831035519 | 87 | 224 | 1.0 | 2.0 | 0.00 | 0.00 | 0.00 | 54 | 1014.5 |
| 20260831035014 | 87 | 225 | 0.0 | 2.0 | 0.00 | 0.00 | 0.00 | 56 | 1014.2 |
| 20260831034504 | 88 | 189 | 1.0 | 2.0 | 0.00 | 0.00 | 0.00 | 52 | 1014.4 |
| 20260831033959 | 88 | 224 | 0.0 | 2.0 | 0.00 | 0.00 | 0.00 | 52 | 1014.2 |
| 20260831033454 | 88 | 230 | 0.0 | 2.0 | 0.00 | 0.00 | 0.00 | 52 | 1014.0 |
| 20260831032950 | 88 | 172 | 0.0 | 3.0 | 0.00 | 0.00 | 0.00 | 51 | 1014.2 |
| 20260831032449 | 88 | 223 | 2.0 | 2.0 | 0.00 | 0.00 | 0.00 | 51 | 1014.4 |
| 20260831031945 | 88 | 242 | 2.0 | 2.0 | 0.00 | 0.00 | 0.00 | 52 | 1014.2 |
| 20260831031444 | 89 | 231 | 1.0 | 3.0 | 0.00 | 0.00 | 0.00 | 51 | 1014.2 |
| 20260831030944 | 89 | 202 | 1.0 | 3.0 | 0.00 | 0.00 | 0.00 | 50 | 1014.3 |
| 20260831030443 | 88 | 235 | 1.0 | 3.0 | 0.00 | 0.00 | 0.00 | 51 | 1014.3 |
| 20260831025941 | 88 | 226 | 1.0 | 2.0 | 0.00 | 0.00 | 0.00 | 50 | 1014.1 |
| 20260831025440 | 89 | 236 | 1.0 | 2.0 | 0.00 | 0.00 | 0.00 | 50 | 1014.1 |
| 20260831024936 | 89 | 249 | 1.0 | 2.0 | 0.00 | 0.00 | 0.00 | 49 | 1014.1 |
| 20260831024436 | 89 | 258 | 0.0 | 3.0 | 0.00 | 0.00 | 0.00 | 49 | 1014.1 |
| 20260831023931 | 89 | 214 | 2.0 | 2.0 | 0.00 | 0.00 | 0.00 | 48 | 1013.8 |
| 20260831023429 | 90 | 272 | 1.0 | 3.0 | 0.00 | 0.00 | 0.00 | 48 | 1013.7 |
| 20260831022925 | 90 | 202 | 0.0 | 2.0 | 0.00 | 0.00 | 0.00 | 47 | 1013.9 |
| 20260831022423 | 91 | 240 | 2.0 | 3.0 | 0.00 | 0.00 | 0.00 | 48 | 1013.7 |
| 20260831021917 | 90 | 204 | 1.0 | 4.0 | 0.00 | 0.00 | 0.00 | 46 | 1013.5 |
| 20260831021412 | 90 | 220 | 2.0 | 3.0 | 0.00 | 0.00 | 0.00 | 46 | 1013.6 |
| 20260831020908 | 90 | 233 | 2.0 | 3.0 | 0.00 | 0.00 | 0.00 | 47 | 1013.3 |
| 20260831020407 | 90 | 208 | 1.0 | 3.0 | 0.00 | 0.00 | 0.00 | 46 | 1013.4 |
| 20260831015902 | 91 | 220 | 1.0 | 3.0 | 0.00 | 0.00 | 0.00 | 45 | 1013.5 |
| 20260831015359 | 91 | 199 | 1.0 | 3.0 | 0.00 | 0.00 | 0.00 | 45 | 1013.5 |
| 20260831014858 | 91 | 247 | 1.0 | 2.0 | 0.00 | 0.00 | 0.00 | 46 | 1013.4 |
| 20260831014353 | 91 | 221 | 2.0 | 3.0 | 0.00 | 0.00 | 0.00 | 44 | 1013.3 |
| 20260831013849 | 92 | 192 | 2.0 | 4.0 | 0.00 | 0.00 | 0.00 | 43 | 1013.1 |
| 20260831013344 | 92 | 206 | 1.0 | 3.0 | 0.00 | 0.00 | 0.00 | 43 | 1013.0 |
| 20260831012838 | 92 | 198 | 2.0 | 3.0 | 0.00 | 0.00 | 0.00 | 43 | 1013.0 |
| 20260831012334 | 92 | 217 | 1.0 | 3.0 | 0.00 | 0.00 | 0.00 | 43 | 1013.2 |
| 20260831011833 | 92 | 239 | 1.0 | 3.0 | 0.00 | 0.00 | 0.00 | 45 | 1013.0 |
| 20260831011328 | 93 | 197 | 2.0 | 3.0 | 0.00 | 0.00 | 0.00 | 43 | 1013.1 |
| 20260831010819 | 93 | 207 | 1.0 | 2.0 | 0.00 | 0.00 | 0.00 | 42 | 1013.0 |
| 20260831010318 | 93 | 254 | 2.0 | 3.0 | 0.00 | 0.00 | 0.00 | 43 | 1012.9 |
| 20260831005814 | 94 | 219 | 3.0 | 3.0 | 0.00 | 0.00 | 0.00 | 41 | 1013.0 |
| 20260831005310 | 94 | 196 | 1.0 | 4.0 | 0.00 | 0.00 | 0.00 | 40 | 1013.0 |
| 20260831004804 | 95 | 219 | 1.0 | 3.0 | 0.00 | 0.00 | 0.00 | 39 | 1012.7 |
| 20260831004301 | 95 | 218 | 3.0 | 4.0 | 0.00 | 0.00 | 0.00 | 39 | 1012.7 |
| 20260831003756 | 95 | 252 | 3.0 | 5.0 | 0.00 | 0.00 | 0.00 | 41 | 1012.7 |
| 20260831003252 | 96 | 220 | 3.0 | 4.0 | 0.00 | 0.00 | 0.00 | 39 | 1012.9 |
| 20260831002751 | 96 | 237 | 3.0 | 6.0 | 0.00 | 0.00 | 0.00 | 38 | 1012.8 |
| 20260831002245 | 96 | 205 | 4.0 | 5.0 | 0.00 | 0.00 | 0.00 | 38 | 1013.1 |
| 20260831001741 | 96 | 254 | 2.0 | 6.0 | 0.00 | 0.00 | 0.00 | 38 | 1012.8 |
| 20260831001236 | 97 | 138 | 2.0 | 6.0 | 0.00 | 0.00 | 0.00 | 37 | 1012.9 |
| 20260831000733 | 97 | 201 | 3.0 | 6.0 | 0.00 | 0.00 | 0.00 | 37 | 1012.9 |
| 20260831000227 | 97 | 235 | 2.0 | 5.0 | 0.00 | 0.00 | 0.00 | 37 | 1013.3 |
| 20260830235726 | 97 | 239 | 3.0 | 4.0 | 0.00 | 0.00 | 0.00 | 38 | 1013.1 |
| 20260830235221 | 98 | 239 | 2.0 | 3.0 | 0.00 | 0.00 | 0.00 | 38 | 1013.2 |
| 20260830234716 | 99 | 239 | 3.0 | 4.0 | 0.00 | 0.00 | 0.00 | 37 | 1013.1 |
| 20260830234212 | 99 | 298 | 3.0 | 7.0 | 0.00 | 0.00 | 0.00 | 36 | 1013.0 |
| 20260830233702 | 100 | 208 | 5.0 | 6.0 | 0.00 | 0.00 | 0.00 | 35 | 1013.1 |
| 20260830233157 | 101 | 139 | 2.0 | 7.0 | 0.00 | 0.00 | 0.00 | 35 | 1013.0 |
| 20260830232653 | 100 | 200 | 3.0 | 5.0 | 0.00 | 0.00 | 0.00 | 35 | 1013.2 |
| 20260830232149 | 101 | 170 | 5.0 | 9.0 | 0.00 | 0.00 | 0.00 | 34 | 1013.1 |
| 20260830231645 | 101 | 235 | 4.0 | 8.0 | 0.00 | 0.00 | 0.00 | 35 | 1013.3 |
| 20260830231144 | 101 | 153 | 6.0 | 11.0 | 0.00 | 0.00 | 0.00 | 34 | 1013.1 |
| 20260830230639 | 102 | 279 | 5.0 | 7.0 | 0.00 | 0.00 | 0.00 | 34 | 1013.2 |
| 20260830230139 | 102 | 198 | 0.0 | 6.0 | 0.00 | 0.00 | 0.00 | 33 | 1013.2 |
| 20260830225634 | 102 | 250 | 2.0 | 10.0 | 0.00 | 0.00 | 0.00 | 35 | 1013.2 |
| 20260830225129 | 103 | 197 | 3.0 | 7.0 | 0.00 | 0.00 | 0.00 | 33 | 1013.1 |
| 20260830224627 | 103 | 187 | 2.0 | 9.0 | 0.00 | 0.00 | 0.00 | 33 | 1013.3 |
| 20260830224123 | 102 | 267 | 3.0 | 5.0 | 0.00 | 0.00 | 0.00 | 33 | 1013.3 |
| 20260830223620 | 103 | 253 | 3.0 | 6.0 | 0.00 | 0.00 | 0.00 | 33 | 1013.3 |
| 20260830223115 | 103 | 222 | 4.0 | 8.0 | 0.00 | 0.00 | 0.00 | 33 | 1013.2 |
| 20260830222614 | 102 | 230 | 4.0 | 9.0 | 0.00 | 0.00 | 0.00 | 35 | 1013.4 |
| 20260830222111 | 103 | 349 | 3.0 | 10.0 | 0.00 | 0.00 | 0.00 | 33 | 1013.2 |
| 20260830221606 | 102 | 218 | 4.0 | 10.0 | 0.00 | 0.00 | 0.00 | 34 | 1013.6 |
| 20260830221102 | 104 | 194 | 2.0 | 6.0 | 0.00 | 0.00 | 0.00 | 32 | 1013.3 |
| 20260830220557 | 103 | 275 | 3.0 | 9.0 | 0.00 | 0.00 | 0.00 | 32 | 1013.3 |
| 20260830220055 | 104 | 205 | 5.0 | 13.0 | 0.00 | 0.00 | 0.00 | 31 | 1013.6 |
| 20260830215549 | 104 | 245 | 3.0 | 14.0 | 0.00 | 0.00 | 0.00 | 32 | 1013.3 |
| 20260830215044 | 104 | 154 | 3.0 | 9.0 | 0.00 | 0.00 | 0.00 | 31 | 1013.4 |
| 20260830214539 | 103 | 232 | 2.0 | 9.0 | 0.00 | 0.00 | 0.00 | 33 | 1013.3 |
| 20260830214033 | 104 | 236 | 3.0 | 6.0 | 0.00 | 0.00 | 0.00 | 32 | 1013.6 |
| 20260830213528 | 104 | 254 | 3.0 | 6.0 | 0.00 | 0.00 | 0.00 | 29 | 1013.6 |
| 20260830213023 | 105 | 197 | 2.0 | 8.0 | 0.00 | 0.00 | 0.00 | 30 | 1013.9 |
| 20260830212519 | 104 | 227 | 2.0 | 7.0 | 0.00 | 0.00 | 0.00 | 32 | 1013.7 |
| 20260830212014 | 104 | 173 | 5.0 | 10.0 | 0.00 | 0.00 | 0.00 | 31 | 1013.7 |
| 20260830211509 | 104 | 263 | 4.0 | 10.0 | 0.00 | 0.00 | 0.00 | 32 | 1013.8 |
| 20260830211003 | 104 | 201 | 2.0 | 11.0 | 0.00 | 0.00 | 0.00 | 31 | 1013.8 |
| 20260830210503 | 104 | 240 | 3.0 | 5.0 | 0.00 | 0.00 | 0.00 | 32 | 1013.7 |
| 20260830210003 | 104 | 223 | 5.0 | 6.0 | 0.00 | 0.00 | 0.00 | 31 | 1014.0 |
| 20260830205500 | 103 | 246 | 4.0 | 10.0 | 0.00 | 0.00 | 0.00 | 34 | 1013.9 |
| 20260830204956 | 104 | 257 | 4.0 | 8.0 | 0.00 | 0.00 | 0.00 | 33 | 1014.0 |
| 20260830204455 | 103 | 220 | 3.0 | 7.0 | 0.00 | 0.00 | 0.00 | 35 | 1013.9 |
| 20260830203949 | 104 | 133 | 4.0 | 9.0 | 0.00 | 0.00 | 0.00 | 33 | 1014.2 |
| 20260830203446 | 103 | 286 | 5.0 | 6.0 | 0.00 | 0.00 | 0.00 | 37 | 1014.2 |
| 20260830202945 | 103 | 222 | 6.0 | 14.0 | 0.00 | 0.00 | 0.00 | 35 | 1014.1 |
| 20260830202440 | 104 | 149 | 6.0 | 8.0 | 0.00 | 0.00 | 0.00 | 35 | 1014.4 |
| 20260830201937 | 103 | 187 | 3.0 | 9.0 | 0.00 | 0.00 | 0.00 | 35 | 1014.3 |
| 20260830201430 | 102 | 233 | 3.0 | 6.0 | 0.00 | 0.00 | 0.00 | 37 | 1014.3 |
| 20260830200926 | 102 | 225 | 3.0 | 8.0 | 0.00 | 0.00 | 0.00 | 38 | 1014.5 |
| 20260830200426 | 100 | 287 | 2.0 | 10.0 | 0.00 | 0.00 | 0.00 | 38 | 1014.7 |
| 20260830195925 | 100 | 255 | 2.0 | 8.0 | 0.00 | 0.00 | 0.00 | 39 | 1014.5 |
| 20260830195420 | 102 | 281 | 4.0 | 8.0 | 0.00 | 0.00 | 0.00 | 37 | 1015.0 |
| 20260830194918 | 101 | 301 | 1.0 | 8.0 | 0.00 | 0.00 | 0.00 | 37 | 1015.0 |
| 20260830194413 | 102 | 259 | 4.0 | 11.0 | 0.00 | 0.00 | 0.00 | 37 | 1015.1 |
| 20260830193913 | 102 | 302 | 2.0 | 10.0 | 0.00 | 0.00 | 0.00 | 38 | 1014.8 |
| 20260830193411 | 102 | 207 | 3.0 | 8.0 | 0.00 | 0.00 | 0.00 | 38 | 1014.9 |
| 20260830192907 | 102 | 220 | 2.0 | 8.0 | 0.00 | 0.00 | 0.00 | 38 | 1014.7 |
| 20260830192402 | 102 | 193 | 4.0 | 9.0 | 0.00 | 0.00 | 0.00 | 37 | 1015.1 |
| 20260830191858 | 102 | 189 | 4.0 | 7.0 | 0.00 | 0.00 | 0.00 | 36 | 1015.1 |
| 20260830191357 | 101 | 153 | 7.0 | 10.0 | 0.00 | 0.00 | 0.00 | 37 | 1015.2 |
| 20260830190853 | 101 | 255 | 4.0 | 7.0 | 0.00 | 0.00 | 0.00 | 39 | 1015.3 |
| 20260830190348 | 101 | 238 | 5.0 | 8.0 | 0.00 | 0.00 | 0.00 | 39 | 1015.5 |
| 20260830185847 | 101 | 224 | 3.0 | 8.0 | 0.00 | 0.00 | 0.00 | 39 | 1015.5 |
| 20260830185342 | 101 | 199 | 3.0 | 7.0 | 0.00 | 0.00 | 0.00 | 38 | 1015.5 |
| 20260830184837 | 100 | 240 | 3.0 | 7.0 | 0.00 | 0.00 | 0.00 | 41 | 1015.8 |
| 20260830184336 | 101 | 221 | 6.0 | 9.0 | 0.00 | 0.00 | 0.00 | 39 | 1015.7 |
| 20260830183836 | 99 | 262 | 3.0 | 9.0 | 0.00 | 0.00 | 0.00 | 41 | 1015.5 |
| 20260830183331 | 100 | 238 | 5.0 | 6.0 | 0.00 | 0.00 | 0.00 | 41 | 1015.7 |
| 20260830182826 | 101 | 175 | 4.0 | 8.0 | 0.00 | 0.00 | 0.00 | 38 | 1015.9 |
| 20260830182322 | 100 | 224 | 1.0 | 10.0 | 0.00 | 0.00 | 0.00 | 38 | 1015.6 |
| 20260830181819 | 100 | 238 | 5.0 | 12.0 | 0.00 | 0.00 | 0.00 | 40 | 1016.1 |
| 20260830181314 | 100 | 264 | 4.0 | 9.0 | 0.00 | 0.00 | 0.00 | 42 | 1016.1 |
| 20260830180813 | 100 | 273 | 2.0 | 8.0 | 0.00 | 0.00 | 0.00 | 42 | 1016.2 |
| 20260830180307 | 99 | 195 | 5.0 | 11.0 | 0.00 | 0.00 | 0.00 | 42 | 1016.2 |
| 20260830175801 | 98 | 182 | 7.0 | 12.0 | 0.00 | 0.00 | 0.00 | 42 | 1016.3 |
| 20260830175256 | 98 | 186 | 2.0 | 5.0 | 0.00 | 0.00 | 0.00 | 43 | 1016.5 |
| 20260830174756 | 97 | 191 | 4.0 | 11.0 | 0.00 | 0.00 | 0.00 | 44 | 1016.4 |
| 20260830174252 | 99 | 258 | 4.0 | 8.0 | 0.00 | 0.00 | 0.00 | 44 | 1016.4 |
| 20260830173751 | 98 | 237 | 2.0 | 11.0 | 0.00 | 0.00 | 0.00 | 45 | 1016.5 |
| 20260830173247 | 98 | 249 | 6.0 | 11.0 | 0.00 | 0.00 | 0.00 | 45 | 1016.6 |
| 20260830172743 | 98 | 181 | 3.0 | 6.0 | 0.00 | 0.00 | 0.00 | 44 | 1016.6 |
| 20260830172240 | 98 | 225 | 4.0 | 7.0 | 0.00 | 0.00 | 0.00 | 45 | 1016.6 |
| 20260830171735 | 98 | 184 | 2.0 | 10.0 | 0.00 | 0.00 | 0.00 | 44 | 1016.8 |
| 20260830171230 | 98 | 259 | 3.0 | 7.0 | 0.00 | 0.00 | 0.00 | 46 | 1016.9 |
| 20260830170725 | 96 | 241 | 3.0 | 8.0 | 0.00 | 0.00 | 0.00 | 48 | 1016.9 |
| 20260830170224 | 97 | 232 | 4.0 | 10.0 | 0.00 | 0.00 | 0.00 | 46 | 1017.0 |
| 20260830165723 | 95 | 204 | 4.0 | 8.0 | 0.00 | 0.00 | 0.00 | 49 | 1017.0 |
| 20260830165219 | 96 | 229 | 5.0 | 11.0 | 0.00 | 0.00 | 0.00 | 48 | 1017.1 |
| 20260830164716 | 96 | 215 | 4.0 | 9.0 | 0.00 | 0.00 | 0.00 | 49 | 1017.2 |
| 20260830164211 | 96 | 237 | 3.0 | 9.0 | 0.00 | 0.00 | 0.00 | 49 | 1017.1 |
| 20260830163708 | 95 | 209 | 6.0 | 9.0 | 0.00 | 0.00 | 0.00 | 49 | 1017.3 |
| 20260830163203 | 95 | 219 | 9.0 | 9.0 | 0.00 | 0.00 | 0.00 | 49 | 1017.3 |
| 20260830162658 | 95 | 197 | 6.0 | 8.0 | 0.00 | 0.00 | 0.00 | 50 | 1017.3 |
| 20260830162153 | 94 | 253 | 3.0 | 10.0 | 0.00 | 0.00 | 0.00 | 50 | 1017.6 |
| 20260830161648 | 96 | 241 | 4.0 | 11.0 | 0.00 | 0.00 | 0.00 | 49 | 1017.5 |
| 20260830161143 | 95 | 241 | 3.0 | 6.0 | 0.00 | 0.00 | 0.00 | 50 | 1017.3 |
| 20260830160639 | 94 | 239 | 4.0 | 8.0 | 0.00 | 0.00 | 0.00 | 51 | 1017.2 |
| 20260830160133 | 95 | 222 | 3.0 | 7.0 | 0.00 | 0.00 | 0.00 | 51 | 1017.3 |
| 20260830155630 | 94 | 259 | 3.0 | 7.0 | 0.00 | 0.00 | 0.00 | 52 | 1017.2 |
| 20260830155125 | 93 | 144 | 6.0 | 11.0 | 0.00 | 0.00 | 0.00 | 52 | 1017.3 |
| 20260830154620 | 93 | 247 | 3.0 | 9.0 | 0.00 | 0.00 | 0.00 | 53 | 1017.1 |
| 20260830154116 | 94 | 186 | 4.0 | 9.0 | 0.00 | 0.00 | 0.00 | 52 | 1017.2 |
| 20260830153612 | 94 | 238 | 3.0 | 7.0 | 0.00 | 0.00 | 0.00 | 54 | 1017.2 |
| 20260830153107 | 92 | 222 | 6.0 | 8.0 | 0.00 | 0.00 | 0.00 | 54 | 1017.4 |
| 20260830152606 | 93 | 247 | 2.0 | 5.0 | 0.00 | 0.00 | 0.00 | 56 | 1017.3 |
| 20260830152105 | 92 | 208 | 1.0 | 5.0 | 0.00 | 0.00 | 0.00 | 57 | 1017.2 |
| 20260830151600 | 91 | 226 | 2.0 | 6.0 | 0.00 | 0.00 | 0.00 | 57 | 1017.2 |
| 20260830151055 | 90 | 227 | 3.0 | 6.0 | 0.00 | 0.00 | 0.00 | 60 | 1017.4 |
| 20260830150554 | 90 | 209 | 2.0 | 9.0 | 0.00 | 0.00 | 0.00 | 59 | 1017.4 |
| 20260830150049 | 90 | 240 | 4.0 | 5.0 | 0.00 | 0.00 | 0.00 | 60 | 1017.3 |
| 20260830145549 | 90 | 189 | 2.0 | 7.0 | 0.00 | 0.00 | 0.00 | 59 | 1017.2 |
| 20260830145044 | 89 | 230 | 2.0 | 5.0 | 0.00 | 0.00 | 0.00 | 61 | 1017.1 |
| 20260830144540 | 89 | 234 | 3.0 | 5.0 | 0.00 | 0.00 | 0.00 | 60 | 1017.2 |
| 20260830144036 | 89 | 188 | 1.0 | 5.0 | 0.00 | 0.00 | 0.00 | 61 | 1017.3 |
| 20260830143531 | 89 | 229 | 2.0 | 4.0 | 0.00 | 0.00 | 0.00 | 62 | 1017.2 |
| 20260830143029 | 88 | 153 | 2.0 | 6.0 | 0.00 | 0.00 | 0.00 | 63 | 1017.1 |
| 20260830142525 | 89 | 176 | 2.0 | 6.0 | 0.00 | 0.00 | 0.00 | 62 | 1017.3 |
| 20260830142020 | 88 | 250 | 2.0 | 5.0 | 0.00 | 0.00 | 0.00 | 64 | 1017.5 |
| 20260830141515 | 87 | 241 | 3.0 | 5.0 | 0.00 | 0.00 | 0.00 | 64 | 1017.4 |
| 20260830141015 | 87 | 209 | 2.0 | 3.0 | 0.00 | 0.00 | 0.00 | 64 | 1017.3 |
| 20260830140510 | 87 | 192 | 3.0 | 6.0 | 0.00 | 0.00 | 0.00 | 65 | 1017.5 |
| 20260830140005 | 87 | 232 | 3.0 | 7.0 | 0.00 | 0.00 | 0.00 | 66 | 1017.3 |
| 20260830135459 | 86 | 229 | 3.0 | 5.0 | 0.00 | 0.00 | 0.00 | 66 | 1017.2 |
| 20260830134955 | 86 | 205 | 3.0 | 5.0 | 0.00 | 0.00 | 0.00 | 67 | 1017.3 |
| 20260830134450 | 85 | 200 | 1.0 | 5.0 | 0.00 | 0.00 | 0.00 | 69 | 1017.5 |
| 20260830133946 | 85 | 192 | 2.0 | 4.0 | 0.00 | 0.00 | 0.00 | 69 | 1017.3 |
| 20260830133442 | 84 | 149 | 1.0 | 4.0 | 0.00 | 0.00 | 0.00 | 70 | 1017.4 |
| 20260830132936 | 84 | 198 | 3.0 | 6.0 | 0.00 | 0.00 | 0.00 | 70 | 1017.2 |
| 20260830132433 | 84 | 250 | 2.0 | 4.0 | 0.00 | 0.00 | 0.00 | 70 | 1017.0 |
| 20260830131932 | 83 | 255 | 2.0 | 5.0 | 0.00 | 0.00 | 0.00 | 72 | 1017.3 |
| 20260830131431 | 83 | 254 | 2.0 | 6.0 | 0.00 | 0.00 | 0.00 | 72 | 1017.1 |
| 20260830130926 | 82 | 226 | 2.0 | 5.0 | 0.00 | 0.00 | 0.00 | 72 | 1016.8 |
| 20260830130422 | 82 | 217 | 1.0 | 5.0 | 0.00 | 0.00 | 0.00 | 72 | 1017.0 |
| 20260830125920 | 82 | 357 | 2.0 | 4.0 | 0.00 | 0.00 | 0.00 | 72 | 1016.8 |
| 20260830125416 | 81 | 345 | 2.0 | 4.0 | 0.00 | 0.00 | 0.00 | 72 | 1016.8 |
| 20260830124914 | 81 | 231 | 2.0 | 4.0 | 0.00 | 0.00 | 0.00 | 74 | 1016.8 |
| 20260830124409 | 80 | 215 | 2.0 | 3.0 | 0.00 | 0.00 | 0.00 | 74 | 1016.9 |
| 20260830123906 | 79 | 265 | 0.0 | 3.0 | 0.00 | 0.00 | 0.00 | 75 | 1016.7 |
| 20260830123402 | 79 | 205 | 1.0 | 3.0 | 0.00 | 0.00 | 0.00 | 75 | 1016.5 |
| 20260830122900 | 79 | 203 | 1.0 | 3.0 | 0.00 | 0.00 | 0.00 | 75 | 1016.6 |
| 20260830122354 | 79 | 232 | 0.0 | 2.0 | 0.00 | 0.00 | 0.00 | 75 | 1016.5 |
| 20260830121849 | 79 | 267 | 2.0 | 5.0 | 0.00 | 0.00 | 0.00 | 75 | 1016.3 |
| 20260830121349 | 79 | 179 | 3.0 | 4.0 | 0.00 | 0.00 | 0.00 | 75 | 1016.1 |
| 20260830120844 | 78 | 226 | 2.0 | 5.0 | 0.00 | 0.00 | 0.00 | 75 | 1016.3 |
| 20260830120340 | 78 | 180 | 2.0 | 3.0 | 0.00 | 0.00 | 0.00 | 74 | 1016.2 |
| 20260830115836 | 78 | 244 | 0.0 | 3.0 | 0.00 | 0.00 | 0.00 | 74 | 1015.8 |
| 20260830115332 | 78 | 245 | 2.0 | 6.0 | 0.00 | 0.00 | 0.00 | 75 | 1016.1 |
| 20260830114828 | 78 | 243 | 1.0 | 2.0 | 0.00 | 0.00 | 0.00 | 74 | 1015.8 |
| 20260830114324 | 78 | 212 | 1.0 | 3.0 | 0.00 | 0.00 | 0.00 | 74 | 1016.1 |
| 20260830113818 | 78 | 200 | 0.0 | 3.0 | 0.00 | 0.00 | 0.00 | 74 | 1016.0 |
| 20260830113314 | 78 | 243 | 1.0 | 2.0 | 0.00 | 0.00 | 0.00 | 75 | 1015.7 |
| 20260830112809 | 78 | 243 | 1.0 | 2.0 | 0.00 | 0.00 | 0.00 | 73 | 1015.5 |
| 20260830112306 | 78 | 260 | 1.0 | 2.0 | 0.00 | 0.00 | 0.00 | 72 | 1015.9 |
| 20260830111801 | 78 | 242 | 1.0 | 2.0 | 0.00 | 0.00 | 0.00 | 72 | 1015.9 |
| 20260830111256 | 79 | 265 | 0.0 | 3.0 | 0.00 | 0.00 | 0.00 | 71 | 1015.7 |
| 20260830110756 | 79 | 215 | 2.0 | 3.0 | 0.00 | 0.00 | 0.00 | 70 | 1015.8 |
| 20260830110253 | 79 | 240 | 0.0 | 3.0 | 0.00 | 0.00 | 0.00 | 69 | 1015.5 |
| 20260830105752 | 79 | 214 | 1.0 | 2.0 | 0.00 | 0.00 | 0.00 | 69 | 1015.6 |
| 20260830105248 | 79 | 259 | 1.0 | 3.0 | 0.00 | 0.00 | 0.00 | 69 | 1015.3 |
| 20260830104744 | 79 | 271 | 1.0 | 5.0 | 0.00 | 0.00 | 0.00 | 69 | 1015.5 |
| 20260830104241 | 79 | 273 | 0.0 | 3.0 | 0.00 | 0.00 | 0.00 | 67 | 1015.5 |
| 20260830103740 | 79 | 229 | 1.0 | 3.0 | 0.00 | 0.00 | 0.00 | 67 | 1015.7 |
| 20260830103236 | 80 | 269 | 1.0 | 4.0 | 0.00 | 0.00 | 0.00 | 67 | 1015.2 |
| 20260830102733 | 80 | 226 | 2.0 | 3.0 | 0.00 | 0.00 | 0.00 | 65 | 1015.3 |
| 20260830102230 | 80 | 187 | 1.0 | 3.0 | 0.00 | 0.00 | 0.00 | 64 | 1015.3 |
| 20260830101726 | 80 | 186 | 1.0 | 3.0 | 0.00 | 0.00 | 0.00 | 64 | 1015.1 |
| 20260830101221 | 80 | 205 | 2.0 | 4.0 | 0.00 | 0.00 | 0.00 | 66 | 1015.3 |
| 20260830100715 | 80 | 247 | 0.0 | 2.0 | 0.00 | 0.00 | 0.00 | 64 | 1015.2 |
| 20260830100214 | 80 | 247 | 0.0 | 3.0 | 0.00 | 0.00 | 0.00 | 64 | 1015.6 |
| 20260830095713 | 80 | 216 | 1.0 | 3.0 | 0.00 | 0.00 | 0.00 | 64 | 1015.5 |
| 20260830095210 | 81 | 255 | 0.0 | 3.0 | 0.00 | 0.00 | 0.00 | 63 | 1015.2 |
| 20260830094705 | 81 | 149 | 2.0 | 4.0 | 0.00 | 0.00 | 0.00 | 61 | 1015.3 |
| 20260830094201 | 81 | 239 | 0.0 | 3.0 | 0.00 | 0.00 | 0.00 | 64 | 1015.5 |
| 20260830093656 | 81 | 180 | 2.0 | 4.0 | 0.00 | 0.00 | 0.00 | 60 | 1015.3 |
| 20260830093153 | 81 | 298 | 1.0 | 3.0 | 0.00 | 0.00 | 0.00 | 61 | 1015.2 |
| 20260830092652 | 81 | 218 | 0.0 | 2.0 | 0.00 | 0.00 | 0.00 | 61 | 1015.3 |